TIBA-1

Last updated on Wed May 14 2025 00:02:45 GMT+0000 (Coordinated Universal Time)

1 44800U 19080A 25133.60113237 .00000172 00000+0 00000+0 0 9999 2 44800 0.0557 347.4812 0002130 80.8309 55.2195 1.00274077 20050
UTC large
Height (km)
Speed (km/s)
/
Latitude / Longitude
Inclination (degrees)
Orbital Period (minutes)
Azimuth
Elevation
Range (km)
Doppler Factor

Next 0 passes for location: London (51.5072 / 0.1276)

Sorry there are no passes over London.